Regional Weather Roundup
Issued by NWS

Home | Current Version | Previous Version | Graphics & Text | Print | Product List | Glossary On
Versions: 1 2 3 4 5 6 7 8 9 10 11 12 13 14 15 16 17 18 19 20 21 22 23 24 25 26 27 28 29 30 31 32 33 34 35 36 37 38 39 40 41 42 43 44 45 46 47 48 49 50
169
ASUS43 KMPX 131701
RWRMN
WEATHER ROUNDUP FOR MINNESOTA
NATIONAL WEATHER SERVICE TWIN CITIES/CHANHASSEN MN
1100 AM CST SAT FEB 13 2016


NOTE: "FAIR" INDICATES FEW OR NO CLOUDS BELOW 12,000 FEET WITH NO
SIGNIFICANT WEATHER AND/OR OBSTRUCTIONS TO VISIBILITY. N/A MEANS
CURRENT SKY AND/OR WEATHER CONDITIONS ARE NOT AVAILABLE.

MNZ060>063-068>070-131800-
   Twin Cities Metro

CITY           SKY/WX    TMP DP  RH WIND       PRES   REMARKS
TWIN CITIES    SUNNY      1 -10  60 CALM      30.63F
ST PAUL        SUNNY      3 -10  54 E5        30.65F WCI  -6
CRYSTAL        SUNNY      2 -11  54 E3        30.61F
BLAINE         SUNNY      3  -9  55 CALM      30.61F
LAKEVILLE      SUNNY      0  -9  65 CALM      30.61S
EDEN PRAIRIE   SUNNY      2 -10  57 S6        30.61F WCI  -9
SOUTH ST PAUL  SUNNY      4 -11  51 CALM      30.63F
LAKE ELMO      FAIR       1  -9  60 CALM      30.63S
$$
MNZ001>005-007-008-013>017-022>024-027-028-131800-
   Northwest Minnesota

CITY           SKY/WX    TMP DP  RH WIND       PRES   REMARKS
BEMIDJI        CLOUDY    -5 -16  60 SE6       30.49F WCI -18
HALLOCK        CLOUDY    -4 -11  71 SE17      30.47F WCI -26
ROSEAU         CLOUDY    -9 -15  77 SE3       30.50F
WARROAD        CLOUDY    -8 -15  71 CALM      30.50F
THIEF RVR FALL CLOUDY    -6 -26  38 SE10      30.48F WCI -23
CROOKSTON      CLOUDY    -2 -11  65 SE15      30.50F WCI -22
FOSSTON        CLOUDY     1  -2  85 SE5       30.47F WCI  -8
DETROIT LAKES  CLOUDY    -2  -9  71 SE12      30.47F WCI -20
MOORHEAD       CLOUDY     1  -8  66 SE14      30.49F WCI -17
PARK RAPIDS    CLOUDY    -5 -16  59 SE7       30.48F WCI -19
MAHNOMEN       FAIR      -4 -12  67 SE6       30.48F WCI -16
$$
MNZ006-009>011-018-025>026-131800-
   North Central Minnesota

CITY           SKY/WX    TMP DP  RH WIND       PRES   REMARKS
BAUDETTE       CLOUDY    -6 -17  59 S5        30.49F WCI -17
FLAG ISLAND    CLOUDY   -17 -22  76 SE6       30.50F WCI -31
INTL FALLS     CLOUDY    -7 -16  65 CALM      30.52F
WASKISH        CLOUDY    -6 -15  65 CALM      30.50F
LONGVILLE      CLOUDY    -2 -17  50 S3        30.52S
GRAND RAPIDS   CLOUDY    -6 -15  65 CALM      30.52S
CRANE LAKE     CLOUDY    -9 -18  64 CALM      30.54F
ORR            CLOUDY    -8 -20  54 CALM      30.46F
COOK           CLOUDY    -8 -18  59 CALM      30.49F
WALKER         FAIR      -7 -17  59 E5        30.52F WCI -18
$$
MNZ012-019>021-037-131800-
   Northeast Minnesota

CITY           SKY/WX    TMP DP  RH WIND       PRES   REMARKS
DULUTH         SUNNY     -3 -16  53 W7        30.50F WCI -16
ELY            SUNNY     -8 -18  59 CALM      30.48F
HIBBING        SUNNY     -5 -18  53 N3        30.50F
EVELETH        SUNNY     -2 -15  55 W3        30.51S
DULUTH HARBOR  SUNNY     -4 -17  54 SW8       30.62F WCI -19
TWO HARBORS    SUNNY      3 -13  47 W5        30.51S WCI  -6
SILVER BAY     SUNNY      3 -17  39 CALM      30.49F
GRAND MARAIS     N/A      1 -13  51 CALM      30.56F
G MARAIS ARPRT CLOUDY    -6 -20  49 NW7G17    30.38S WCI -20
$$
MNZ029>031-032-039>041-046>048-054>057-064-131800-
   West Central Minnesota

CITY           SKY/WX    TMP DP  RH WIND       PRES   REMARKS
FERGUS FALLS   CLOUDY     1  -9  60 SE15      30.54F WCI -18
WHEATON        CLOUDY     3  -2  78 SE15      30.52F WCI -15
MORRIS         CLOUDY     1  -6  71 SE16      30.50F WCI -18
ALEXANDRIA     CLOUDY    -1 -11  62 SE9       30.50F WCI -16
ELBOW LAKE     FAIR       0  -9  65 E12G17    30.50F WCI -17
WADENA         CLOUDY    -2 -13  60 SE7       30.50F WCI -16
GLENWOOD       CLOUDY     0  -9  65 SE8       30.52F WCI -15
APPLETON       CLOUDY     3  -6  66 SE12      30.52F WCI -13
BENSON         SUNNY      3  -8  60 S9        30.53F WCI -11
ORTONVILLE     CLOUDY     1  -8  66 SE15      30.49F WCI -18
MADISON        CLOUDY     3  -4  72 SE15      30.51F WCI -15
WILLMAR        FAIR       5  -6  61 SE12      30.55F WCI -11
$$
MNZ033>034-036-042>043-049>051-058-059-131800-
   Central Minnesota

CITY           SKY/WX    TMP DP  RH WIND       PRES   REMARKS
ST CLOUD       CLOUDY    -2 -10  69 SE6       30.58F WCI -14
SAUK CENTRE    FAIR      -3 -13  63 SE7       30.54F WCI -17
PAYNESVILLE    SUNNY      2  -9  61 SE9       30.56F WCI -13
AITKIN         CLOUDY    -4 -20  45 CALM      30.54F
PINE RIVER       N/A     -6 -15  65 SE5       30.55F WCI -17
BRAINERD       CLOUDY    -5 -14  65 CALM      30.55F
STAPLES        CLOUDY    -4 -15  59 S5        30.52F WCI -15
LONG PRAIRIE   FAIR      -4 -15  59 SE6       30.54F WCI -16
LITTLE FALLS   CLOUDY    -4 -15  59 CALM      30.57F
LITCHFIELD     SUNNY      1  -9  60 SE6       30.57F WCI -10
BUFFALO        SUNNY      1 -12  55 SE3       30.61F
MAPLE LAKE     SUNNY      2  -9  59 SE3       30.59F
$$
MNZ037-044-045-052-053-131800-
   East Central Minnesota

CITY           SKY/WX    TMP DP  RH WIND       PRES   REMARKS
PRINCETON      SUNNY      1 -11  55 CALM      30.60S
MORA           SUNNY      0 -15  50 CALM      30.61F
CAMBRIDGE      SUNNY      1 -11  55 CALM      30.60S
MOOSE LAKE     SUNNY     -2 -18  46 CALM      30.56F
HINCKLEY       FAIR      -4 -13  65 CALM      30.60S
CLOQUET        SUNNY     -6 -18  54 CALM      30.52F
MCGREGOR       CLOUDY    -4 -15  59 CALM      30.56S
$$
MNZ071>073-080-081-089-090-097-098-131800-
   Southwest Minnesota

CITY           SKY/WX    TMP DP  RH WIND       PRES   REMARKS
MONTEVIDEO     PTSUNNY    3  -6  66 S8        30.54F WCI -10
GRANITE FALLS  CLOUDY     4  -3  71 SE13      30.56F WCI -13
CANBY          CLOUDY     8   0  70 E13       30.50F WCI  -8
MARSHALL       CLOUDY     5  -4  66 SE13      30.52F WCI -12
REDWOOD FALLS  CLOUDY     1  -6  72 SE10      30.57F WCI -15
OLIVIA         SUNNY      3  -4  72 SE10      30.56F WCI -12
PIPESTONE      CLOUDY     3  -9  55 S10G17    30.43F WCI -12
WINDOM         CLOUDY     1  -6  71 SE8       30.53F WCI -12
WORTHINGTON    CLOUDY     1  -8  66 S12       30.49F WCI -15
JACKSON        CLOUDY     3  -8  60 S8        30.53F WCI -10
TRACY          CLOUDY     4  -3  71 SE10      30.52F WCI -11
SLAYTON        CLOUDY     3  -4  73 SE13      30.47F WCI -14
$$
MNZ065>067-074>077-082>085-091>093-131800-
   South Central Minnesota

CITY           SKY/WX    TMP DP  RH WIND       PRES   REMARKS
MANKATO        CLOUDY     1  -8  66 SE6       30.60S WCI -10
NEW ULM        SUNNY      0  -9  65 S7        30.59F WCI -13
ST JAMES       CLOUDY     1  -6  71 SE7       30.60S WCI -11
FAIRMONT       CLOUDY     1  -6  71 SE8       30.56F WCI -12
GLENCOE        SUNNY      4  -7  61 SE5       30.59F WCI  -6
OWATONNA       SUNNY      0  -9  65 CALM      30.58F
WASECA         CLOUDY     3  -8  60 E5        30.60F WCI  -6
ALBERT LEA     SUNNY      3  -9  55 SE6       30.57S WCI  -8
$$
MNZ078>079-086>088-094>096-131800-
   Southeast Minnesota

CITY           SKY/WX    TMP DP  RH WIND       PRES   REMARKS
ROCHESTER      CLOUDY    -2 -11  65 CALM      30.57F
STANTON        SUNNY      0 -10  61 CALM      30.61S
DODGE CENTER   CLOUDY    12  -4  48 CALM      30.56S
WINONA         SUNNY      5  -9  51 CALM      30.66F
AUSTIN         CLOUDY    -2 -11  65 SE3       30.58F
PRESTON        CLOUDY    -1 -14  55 CALM      30.58F
$$
ABBREVIATIONS USED IN REMARKS
   TC - TEMPERATURES IN CELSIUS
  WCI - WIND CHILL INDEX
   HX - HEAT INDEX
  VSB - VISIBILITY
$$




USA.gov is the U.S. government's official web portal to all federal, state and local government web resources and services.